RASSVET-3 16

Last updated on Sun Apr 12 2026 00:02:09 GMT+0000 (Coordinated Universal Time)

1 68375U 26061R 26101.49310438 .00071257 00000+0 31762-3 0 9999 2 68375 82.2948 87.4544 0021454 12.2823 347.8964 15.83670838 2989
UTC large
Height (km)
Speed (km/s)
/
Latitude / Longitude
Inclination (degrees)
Orbital Period (minutes)
Azimuth
Elevation
Range (km)
Doppler Factor

Next 0 passes for location: London (51.5072 / 0.1276)

Sorry there are no passes over London.
RASSVET-3 16